Location: Zapote
(9.9191°N, 84.0597°W)
Time: 17:33:08
(UTC-06:00)

Transit 2A - Pass Details

Date: 05 March 2021
Orbit: 602 x 957 km, 66.7° (Epoch: 16 April)

Event Time Altitude Azimuth Distance (km) Brightness Sun altitude
Rises 15:39:01 0° 183° (S) 3,562 9.6 30.3°
Reaches altitude 10° 15:41:49 10° 174° (S) 2,581 8.9 29.6°
Maximum altitude 15:47:14 36° 110° (ESE) 1,338 7.1 28.3°
Drops below altitude 10° 15:52:14 10° 45° (NE) 2,379 8.2 27.1°
Sets 15:54:43 0° 36° (NE) 3,249 8.8 26.5°
